Location: Miles
(41.4492°N, 81.6087°W)
Time: 08:55:36
(UTC+00:00)

Vanguard 2 Rocket - All Passes

Search period start: 19 September 2024 00:00
Search period end: 29 September 2024 00:00
Orbit: 553 x 3300 km, 32.9° (Epoch: 18 September)

Date Brightness Start Highest point End Pass type
(mag) Time Alt. Az. Time Alt. Az. Time Alt. Az.
19 Sep - 04:49:31 10° SSW 04:55:43 30° SE 05:05:29 10° E visible
19 Sep - 06:59:48 10° WSW 07:08:46 56° S 07:24:14 10° E visible
19 Sep - 09:12:04 10° W 09:23:58 56° S 09:42:18 10° ESE visible
19 Sep - 11:26:16 10° W 11:40:02 38° SSW 11:57:16 10° SSE daylight
19 Sep - 13:46:27 10° WSW 13:55:21 15° SW 14:04:37 10° SSW daylight
20 Sep - 03:48:40 10° S 03:53:02 18° SE 03:58:56 10° E night (unlit)
20 Sep - 05:57:29 10° SW 06:04:59 48° SSE 06:17:57 10° E visible
20 Sep - 08:09:01 10° WSW 08:19:17 58° S 08:36:20 10° ESE visible
20 Sep - 10:22:12 10° W 10:35:00 44° SSW 10:52:50 10° SE visible
20 Sep - 12:38:51 10° W 12:50:41 23° SW 13:04:03 10° S daylight
21 Sep - 04:55:33 10° SW 05:01:43 36° SSE 05:11:50 10° E visible
21 Sep - 07:06:19 10° WSW 07:15:01 57° S 07:30:08 10° ESE visible
21 Sep - 09:18:42 10° W 09:30:07 50° SSW 09:47:38 10° SE visible
21 Sep - 11:33:25 10° W 11:45:51 30° SSW 12:01:20 10° SSE daylight
22 Sep - 03:54:09 10° SSW 03:58:53 24° SE 04:05:50 10° E night (unlit)
22 Sep - 06:03:54 10° WSW 06:11:12 51° SSE 06:23:58 10° E visible
22 Sep - 08:15:38 10° W 08:25:31 53° S 08:41:55 10° ESE visible
22 Sep - 10:29:05 10° W 10:40:59 36° SSW 10:57:25 10° SSE visible
22 Sep - 12:47:58 10° WSW 12:56:25 15° SW 13:05:44 10° SSW daylight
23 Sep - 02:54:02 10° SSE 02:56:24 13° SE 02:59:12 10° ESE night (unlit)
23 Sep - 05:01:48 10° SW 05:07:51 41° SSE 05:18:02 10° E visible
23 Sep - 07:12:54 10° WSW 07:21:17 54° S 07:35:55 10° ESE visible
23 Sep - 09:25:27 10° W 09:36:14 42° SSW 09:52:37 10° SE visible
23 Sep - 11:41:11 10° WSW 11:51:42 22° SW 12:04:30 10° S daylight
24 Sep - 04:00:04 10° SSW 04:04:55 29° SSE 04:12:21 10° E night (unlit)
24 Sep - 06:10:26 10° WSW 06:17:29 52° S 06:29:54 10° ESE visible
24 Sep - 08:22:19 10° W 08:31:44 47° SSW 08:47:13 10° SE visible
24 Sep - 10:36:17 10° W 10:46:59 28° SSW 11:01:22 10° SSE visible
25 Sep - 02:58:56 10° S 03:02:20 17° SE 03:06:43 10° ESE night (unlit)
25 Sep - 05:08:12 10° WSW 05:14:07 45° SSE 05:24:08 10° E visible
25 Sep - 07:19:32 10° W 07:27:37 49° S 07:41:30 10° ESE visible
25 Sep - 09:32:24 10° W 09:42:22 34° SSW 09:57:07 10° SSE visible
25 Sep - 11:50:24 10° WSW 11:57:38 15° SW 12:05:56 10° S daylight
26 Sep - 04:06:14 10° SW 04:11:05 34° SSE 04:18:42 10° E night (unlit)
26 Sep - 06:17:01 10° WSW 06:23:50 49° S 06:35:43 10° ESE visible
26 Sep - 08:29:07 10° W 08:37:59 39° SSW 08:52:11 10° SE visible
26 Sep - 10:44:11 10° WSW 10:53:01 20° SSW 11:04:21 10° S visible
27 Sep - 03:04:37 10° SSW 03:08:23 22° SSE 03:13:31 10° ESE night (unlit)
27 Sep - 05:14:42 10° WSW 05:20:26 45° S 05:30:08 10° ESE visible
27 Sep - 07:26:14 10° W 07:33:55 42° SSW 07:46:50 10° SE visible
27 Sep - 09:39:42 10° WSW 09:48:32 26° SSW 10:00:58 10° SSE visible
28 Sep - 02:03:56 10° S 02:05:51 12° SE 02:08:01 10° ESE night (unlit)
28 Sep - 04:12:34 10° SW 04:17:22 38° SSE 04:24:54 10° ESE night (unlit)
28 Sep - 06:23:40 10° WSW 06:30:11 44° S 06:41:22 10° ESE visible
28 Sep - 08:36:07 10° WSW 08:44:16 30° SSW 08:56:40 10° SSE visible
28 Sep - 10:53:49 10° WSW 10:59:08 13° SW 11:05:17 10° SSW visible
